Regional Weather Roundup
Issued by NWS

Home | Current Version | Previous Version | Text Only | Print | Product List | Glossary Off
Versions: 1 2 3 4 5 6 7 8 9 10 11 12 13 14 15 16 17 18 19 20 21 22 23 24 25 26 27 28 29 30 31 32 33 34 35 36 37 38 39 40 41 42 43 44 45 46 47 48 49 50

000
ASUS45 KABQ 280810
RWRNM
NEW MEXICO REGIONAL WEATHER ROUNDUP
NATIONAL WEATHER SERVICE ALBUQUERQUE NM
200 AM MDT WED SEP 28 2016

NOTE: "FAIR" MEANS FEW OR NO CLOUDS BELOW 12,000 FEET AGL WITH NO
       SIGNIFICANT WEATHER OR OBSTRUCTIONS TO VISION.

      THIS PRODUCT IS RELEASED AS TWO VERSIONS.  ONE VERSION NEAR
      THE TOP OF THE HOUR CONTAINING PRELIMINARY DATA FROM ALBUQUERQUE
      AND OTHER STATIONS.  A FINAL VERSION WITH ADDITIONAL DATA IS
      ISSUED ABOUT 10 MINUTES AFTER THE HOUR.

NMZ501-503-504-510>518-280900-
NORTHWEST PLATEAU/NORTHCENTRAL MOUNTAINS

CITY           SKY/WX    TMP DP  RH WIND       PRES   REMARKS
FARMINGTON     FAIR      52  32  46 NE6       30.22R
LOS ALAMOS     FAIR      58  25  27 CALM      30.33F
SANTA FE       FAIR      45  34  65 N7        30.28S
TAOS           FAIR      45  21  39 N5        30.35R

$$
NMZ402-403-502-505>509-280900-
WESTCENTRAL MOUNTAINS/SOUTHWEST MOUNTAINS

CITY           SKY/WX    TMP DP  RH WIND       PRES   REMARKS
GALLUP         FAIR      43  41  93 E5        30.30R
SILVER CITY    FAIR      57  47  71 CALM      30.24S

$$
NMZ407-409-411-412-280900-
SOUTHERN DESERTS

CITY           SKY/WX    TMP DP  RH WIND       PRES   REMARKS
DEMING         FAIR      59  50  72 N5        30.19S
LAS CRUCES     FAIR      58  53  81 NE6       30.20S
HOLLOMAN AFB   FAIR      60  52  74 NE5       30.17R
ALAMOGORDO     FAIR      57  50  77 CALM      30.19S
T OR C         FAIR      62  51  67 NW5       30.20F

$$
NMZ519>523-280900-
CENTRAL VALLEYS/CENTRAL HIGHLANDS

CITY           SKY/WX    TMP DP  RH WIND       PRES   REMARKS
ALBUQUERQUE    FAIR      56  41  57 E3        30.24R
DOUBLE EAGLE   FAIR      49  40  71 SW3       30.27S
MORIARTY ARPT  FAIR      40  32  72 N5        30.29S
CLINES CORNERS FAIR      49  39  68 SW10      30.32R
BELEN          FAIR      56  43  62 N3        30.23S
SOCORRO        FAIR      59  47  64 S6        30.21S

$$
NMZ524>526-539-540-280900-
SOUTHCENTRAL MOUNTAINS

CITY           SKY/WX    TMP DP  RH WIND       PRES   REMARKS
RUIDOSO        FAIR      55  37  50 W3        30.32F

$$
NMZ527>531-280900-
NORTHEAST HIGHLANDS/NORTHEAST PLAINS

CITY           SKY/WX    TMP DP  RH WIND       PRES   REMARKS
LAS VEGAS      FAIR      51  29  42 N5        30.30S
RATON          FAIR      44  34  67 NE6       30.26R
CLAYTON        FAIR      57  35  43 W12       30.17S

$$
NMZ532>537-280900-
EASTCENTRAL PLAINS

CITY           SKY/WX    TMP DP  RH WIND       PRES   REMARKS
TUCUMCARI      FAIR      56  34  43 W5        30.14S
CANNON AFB     NOT AVBL
CLOVIS AIRPORT FAIR      52  39  62 W8        30.17S

$$
NMZ028-029-538-280900-
SOUTHEAST PLAINS

CITY           SKY/WX    TMP DP  RH WIND       PRES   REMARKS
ROSWELL        FAIR      53  45  74 SE3       30.14F
ARTESIA        FAIR      57  54  88 CALM      30.15F
CARLSBAD       FAIR      56  53  90 SW3       30.12F
HOBBS          FAIR      54  54 100 W6        30.17S


$$




USA.gov is the U.S. government's official web portal to all federal, state and local government web resources and services.